User: anonymous   Login
Location: Unspecified
(0.0000°N, 0.0000°E)
Time: 01:50:49
(UTC+00:00)
Language:

STARLINK-11183 [DTC] - Orbit

View from above orbital plane
View from above orbital plane
View from above satellite
View from above satellite

Ground track
Ground track

The orbit is defined by the following mean orbital elements,

1 60189U          26145.37204146 +.00000000 +00000-0 +57793-5 0 00008
2 60189  53.1590 143.5541 0001120  82.1292 277.9853 15.69702645    06
Epoch (UTC): 25 May 2026 08:55:44
Eccentricity: 0.0001120
inclination: 53.1590°
perigee height: 359 km
apogee height: 361 km
right ascension of ascending node: 143.5541°
argument of perigee: 82.1292°
revolutions per day: 15.69702645
mean anomaly at epoch: 277.9853°

The dashed part of the orbit path shows where the satellite is in the earth's shadow,  

DLR